• Em Portugal
  • Lista de países
  • Para 7 dias
  • Temperatura da água
  • Mapas de satélite
  • Mapa do tempo
  • Widgets de tempo
  • user-avatar
    Iniciar Sessão

    Previsão horária em São Juão

    Hoje, 23 Fevereiro, Sexta-feira

    Tempo Temperatura Precipitação Vento Pressão Humidade
    00:00 +28°C° 0,1 mm 5 m/s 705 mmHg 40%
    01:00 +28°C° 0 mm 4 m/s 704 mmHg 39%
    02:00 +27°C° 0 mm 4 m/s 704 mmHg 42%
    03:00 +27°C° 0 mm 4 m/s 704 mmHg 44%
    04:00 +26°C° 0 mm 3 m/s 704 mmHg 47%
    05:00 +26°C° 0,1 mm 3 m/s 704 mmHg 46%
    06:00 +27°C° 0,1 mm 3 m/s 704 mmHg 45%
    07:00 +28°C° 0 mm 2 m/s 704 mmHg 42%
    08:00 +29°C° 0,3 mm 2 m/s 705 mmHg 40%
    09:00 +30°C° 0,3 mm 2 m/s 705 mmHg 38%
    10:00 +31°C° 0,3 mm 2 m/s 705 mmHg 37%
    11:00 +31°C° 0,3 mm 3 m/s 705 mmHg 35%
    12:00 +33°C° 0,3 mm 3 m/s 704 mmHg 33%
    13:00 +34°C° 0,3 mm 4 m/s 704 mmHg 32%
    14:00 +34°C° 0,8 mm 4 m/s 704 mmHg 32%
    15:00 +34°C° 0,8 mm 4 m/s 704 mmHg 32%
    16:00 +34°C° 0,8 mm 4 m/s 704 mmHg 32%
    17:00 +32°C° 1,4 mm 5 m/s 704 mmHg 39%
    18:00 +29°C° 1,4 mm 6 m/s 704 mmHg 46%
    19:00 +27°C° 1,4 mm 7 m/s 705 mmHg 53%
    20:00 +26°C° 1,7 mm 7 m/s 705 mmHg 61%
    21:00 +23°C° 1,7 mm 6 m/s 706 mmHg 69%
    22:00 +22°C° 1,7 mm 6 m/s 707 mmHg 77%
    23:00 +22°C° 0,7 mm 6 m/s 707 mmHg 78%

    Amanhã, 24 Fevereiro, Sábado

    Tempo Temperatura Precipitação Vento Pressão Humidade
    00:00 +22°C° 0,7 mm 5 m/s 707 mmHg 80%
    01:00 +21°C° 0,7 mm 5 m/s 707 mmHg 81%
    02:00 +21°C° 0,4 mm 4 m/s 707 mmHg 81%
    03:00 +21°C° 0,4 mm 4 m/s 707 mmHg 81%
    04:00 +21°C° 0,4 mm 3 m/s 707 mmHg 81%
    05:00 +21°C° 0,1 mm 3 m/s 707 mmHg 80%
    06:00 +21°C° 0,1 mm 3 m/s 707 mmHg 78%
    07:00 +21°C° 0,1 mm 2 m/s 707 mmHg 77%
    08:00 +23°C° 0,2 mm 2 m/s 707 mmHg 71%
    09:00 +25°C° 0,2 mm 2 m/s 707 mmHg 65%
    10:00 +26°C° 0,2 mm 2 m/s 707 mmHg 60%
    11:00 +26°C° 0,2 mm 2 m/s 707 mmHg 56%
    12:00 +27°C° 0,2 mm 2 m/s 707 mmHg 53%
    13:00 +28°C° 0,2 mm 2 m/s 706 mmHg 50%
    14:00 +28°C° 0,2 mm 2 m/s 706 mmHg 49%
    15:00 +29°C° 0,2 mm 3 m/s 706 mmHg 47%
    16:00 +29°C° 0,2 mm 3 m/s 706 mmHg 46%
    17:00 +28°C° 0,4 mm 3 m/s 706 mmHg 48%
    18:00 +28°C° 0,4 mm 3 m/s 706 mmHg 51%
    19:00 +27°C° 0,4 mm 3 m/s 707 mmHg 53%
    20:00 +27°C° 0,7 mm 2 m/s 707 mmHg 55%
    21:00 +26°C° 0,7 mm 2 m/s 707 mmHg 58%
    22:00 +26°C° 0,7 mm 2 m/s 708 mmHg 60%
    23:00 +25°C° 0,7 mm 2 m/s 707 mmHg 61%

    Depois de amanhã, 25 Fevereiro, Domingo

    Tempo Temperatura Precipitação Vento Pressão Humidade
    00:00 +25°C° 0,7 mm 1 m/s 707 mmHg 62%
    01:00 +24°C° 0,7 mm 1 m/s 707 mmHg 64%
    02:00 +24°C° 0,3 mm 1 m/s 707 mmHg 65%
    03:00 +24°C° 0,3 mm 1 m/s 707 mmHg 65%
    04:00 +24°C° 0,3 mm 1 m/s 707 mmHg 66%
    05:00 +24°C° 0,1 mm 1 m/s 707 mmHg 64%
    06:00 +24°C° 0,1 mm 1 m/s 707 mmHg 63%
    07:00 +25°C° 0,1 mm 1 m/s 708 mmHg 61%
    08:00 +26°C° 0,2 mm 1 m/s 708 mmHg 56%
    09:00 +27°C° 0,2 mm 1 m/s 708 mmHg 51%
    10:00 +28°C° 0,2 mm 1 m/s 708 mmHg 46%
    11:00 +29°C° 0,4 mm 2 m/s 707 mmHg 43%
    12:00 +30°C° 0,4 mm 2 m/s 707 mmHg 40%
    13:00 +31°C° 0,4 mm 2 m/s 706 mmHg 38%
    14:00 +31°C° 0,3 mm 2 m/s 706 mmHg 37%
    15:00 +31°C° 0,3 mm 2 m/s 705 mmHg 36%
    16:00 +32°C° 0,3 mm 2 m/s 705 mmHg 35%
    17:00 +31°C° 0,4 mm 2 m/s 705 mmHg 36%
    18:00 +30°C° 0,4 mm 2 m/s 706 mmHg 38%
    19:00 +30°C° 0,4 mm 2 m/s 706 mmHg 40%
    20:00 +29°C° 0,5 mm 2 m/s 706 mmHg 41%
    21:00 +29°C° 0,5 mm 2 m/s 707 mmHg 43%
    22:00 +28°C° 0,5 mm 2 m/s 707 mmHg 44%
    23:00 +28°C° 0,3 mm 2 m/s 707 mmHg 45%

    26 Fevereiro, Segunda-feira

    Tempo Temperatura Precipitação Vento Pressão Humidade
    00:00 +27°C° 0,3 mm 2 m/s 706 mmHg 46%
    01:00 +27°C° 0,3 mm 2 m/s 706 mmHg 47%
    02:00 +27°C° 0,1 mm 2 m/s 706 mmHg 47%
    03:00 +26°C° 0,1 mm 2 m/s 706 mmHg 48%
    04:00 +26°C° 0,1 mm 2 m/s 705 mmHg 48%
    05:00 +26°C° 0,1 mm 2 m/s 705 mmHg 46%
    06:00 +27°C° 0,1 mm 2 m/s 706 mmHg 44%
    07:00 +27°C° 0,1 mm 2 m/s 706 mmHg 42%
    08:00 +28°C° 0,1 mm 2 m/s 706 mmHg 39%
    09:00 +30°C° 0,1 mm 2 m/s 706 mmHg 36%
    10:00 +31°C° 0,1 mm 2 m/s 706 mmHg 34%
    11:00 +32°C° 0,1 mm 2 m/s 705 mmHg 32%
    12:00 +32°C° 0,1 mm 2 m/s 704 mmHg 30%
    13:00 +34°C° 0,1 mm 3 m/s 703 mmHg 29%
    14:00 +35°C° 0,2 mm 3 m/s 703 mmHg 28%
    15:00 +35°C° 0,2 mm 3 m/s 703 mmHg 28%
    16:00 +35°C° 0,2 mm 3 m/s 702 mmHg 27%
    17:00 +34°C° 0,4 mm 3 m/s 702 mmHg 29%
    18:00 +33°C° 0,4 mm 3 m/s 703 mmHg 31%
    19:00 +33°C° 0,4 mm 3 m/s 703 mmHg 34%
    20:00 +31°C° 0,4 mm 3 m/s 703 mmHg 36%
    21:00 +30°C° 0,4 mm 3 m/s 704 mmHg 38%
    22:00 +30°C° 0,4 mm 3 m/s 704 mmHg 40%
    23:00 +29°C° 0,1 mm 3 m/s 704 mmHg 42%

    27 Fevereiro, Terça-feira

    Tempo Temperatura Precipitação Vento Pressão Humidade
    00:00 +29°C° 0,1 mm 2 m/s 704 mmHg 44%
    01:00 +28°C° 0,1 mm 2 m/s 703 mmHg 46%
    02:00 +28°C° 0,2 mm 2 m/s 703 mmHg 47%
    03:00 +27°C° 0,2 mm 2 m/s 703 mmHg 48%
    04:00 +27°C° 0,2 mm 1 m/s 703 mmHg 48%
    05:00 +27°C° 0,2 mm 2 m/s 704 mmHg 48%
    06:00 +27°C° 0,2 mm 3 m/s 704 mmHg 48%
    07:00 +27°C° 0,2 mm 4 m/s 705 mmHg 47%
    08:00 +28°C° 1,2 mm 4 m/s 705 mmHg 45%
    09:00 +29°C° 1,2 mm 5 m/s 705 mmHg 43%
    10:00 +30°C° 1,2 mm 5 m/s 706 mmHg 41%
    11:00 +30°C° 1,6 mm 5 m/s 705 mmHg 41%
    12:00 +32°C° 1,6 mm 5 m/s 705 mmHg 42%
    13:00 +32°C° 1,6 mm 5 m/s 704 mmHg 42%
    14:00 +30°C° 1,5 mm 5 m/s 704 mmHg 44%
    15:00 +30°C° 1,5 mm 5 m/s 704 mmHg 47%
    16:00 +29°C° 1,5 mm 6 m/s 703 mmHg 49%
    17:00 +28°C° 0,7 mm 5 m/s 704 mmHg 51%
    18:00 +28°C° 0,7 mm 4 m/s 704 mmHg 54%
    19:00 +27°C° 0,7 mm 3 m/s 705 mmHg 56%
    20:00 +26°C° 0,9 mm 5 m/s 705 mmHg 59%
    21:00 +26°C° 0,9 mm 6 m/s 706 mmHg 62%
    22:00 +24°C° 0,9 mm 7 m/s 706 mmHg 65%
    23:00 +24°C° 1,2 mm 6 m/s 706 mmHg 66%

    28 Fevereiro, Quarta-feira

    Tempo Temperatura Precipitação Vento Pressão Humidade
    00:00 +23°C° 1,2 mm 6 m/s 706 mmHg 66%
    01:00 +23°C° 1,2 mm 5 m/s 706 mmHg 66%
    02:00 +22°C° 0,9 mm 5 m/s 706 mmHg 67%
    03:00 +22°C° 0,9 mm 4 m/s 706 mmHg 69%
    04:00 +22°C° 0,9 mm 4 m/s 706 mmHg 70%
    05:00 +22°C° 0,9 mm 4 m/s 707 mmHg 69%
    06:00 +22°C° 0,9 mm 3 m/s 707 mmHg 69%
    07:00 +22°C° 0,9 mm 3 m/s 707 mmHg 69%
    08:00 +22°C° 0,4 mm 3 m/s 707 mmHg 64%
    09:00 +23°C° 0,4 mm 4 m/s 707 mmHg 60%
    10:00 +25°C° 0,4 mm 4 m/s 707 mmHg 55%
    11:00 +26°C° 0,4 mm 4 m/s 707 mmHg 53%
    12:00 +27°C° 0,4 mm 5 m/s 707 mmHg 51%
    13:00 +28°C° 0,4 mm 6 m/s 706 mmHg 49%
    14:00 +27°C° 1 mm 6 m/s 706 mmHg 53%
    15:00 +26°C° 1 mm 6 m/s 705 mmHg 56%
    16:00 +26°C° 1 mm 6 m/s 705 mmHg 60%
    17:00 +25°C° 1,1 mm 5 m/s 706 mmHg 62%
    18:00 +23°C° 1,1 mm 5 m/s 706 mmHg 64%
    19:00 +23°C° 1,1 mm 5 m/s 706 mmHg 66%
    20:00 +23°C° 0,6 mm 4 m/s 706 mmHg 65%
    21:00 +24°C° 0,6 mm 3 m/s 707 mmHg 64%
    22:00 +24°C° 0,6 mm 3 m/s 707 mmHg 62%
    23:00 +23°C° 0,4 mm 2 m/s 707 mmHg 64%
    Mostrar mais